Regional Weather Roundup
Issued by NWS

Home | Current Version | Previous Version | Text Only | Print | Product List | Glossary On
Versions: 1 2 3 4 5 6 7 8 9 10 11 12 13 14 15 16 17 18 19 20 21 22 23 24 25 26 27 28 29 30 31 32 33 34 35 36 37 38 39 40 41 42 43 44 45 46 47 48 49 50
000
ASUS44 KFWD 040115
RWRTX
NORTH TEXAS HOURLY WEATHER ROUNDUP
NATIONAL WEATHER SERVICE FORT WORTH TX
700 PM CST SAT DEC 03 2016

NOTE: "FAIR" INDICATES FEW OR NO CLOUDS BELOW 12,000 FEET WITH NO
SIGNIFICANT WEATHER AND/OR OBSTRUCTIONS TO VISIBILITY.

TXZ118-119-040200-
DALLAS/FORT WORTH METROPLEX

CITY           SKY/WX    TMP DP  RH WIND       PRES   REMARKS
DFW AIRPORT    CLOUDY    49  46  90 E15       29.95F
DALLAS LOVE    CLOUDY    49  47  93 E14       29.93F
FTW MEACHAM    CLOUDY    49  46  90 NE9       29.97S
DAL-EXECUTIVE  CLOUDY    48  48 100 NE9       29.97S FOG
FTW-ALLIANCE   CLOUDY    48  46  93 E9        29.97F
FTW-NAS-JRB    CLOUDY    49  48  97 NE5       29.99R
FTW-SPINKS     CLOUDY    48  46  93 NE6       29.97F FOG
ARLINGTON      CLOUDY    49  47  93 NE13      29.94F
ADDISON        CLOUDY    48  48 100 NE6       29.99F FOG
MESQUITE       CLOUDY    46  46 100 NE5       29.98F FOG
LANCASTER      CLOUDY    49  47  92 NE6       29.99F FOG
$$

TXZ091>094-102>105-117-120-121-131>134-040200-
NORTH CENTRAL TEXAS

CITY           SKY/WX    TMP DP  RH WIND       PRES   REMARKS
SHRMAN/DENISON CLOUDY    46  46 100 E9        30.02F FOG
GAINESVILLE    CLOUDY    45  44  96 CALM      30.03S FOG
BOWIE          CLOUDY    46  45  97 NE3       30.00S
BRIDGEPORT     CLOUDY    47  47 100 NE5       30.00F FOG
DECATUR        CLOUDY    46  46 100 NE8       29.98S FOG
DENTON         CLOUDY    47  46  97 NE10      29.98F FOG
MCKINNEY       CLOUDY    47  47 100 NE7       29.99F FOG
BONHAM         DRIZZLE   45  45 100 E9        30.02F FOG     WCI  40
GREENVILLE     CLOUDY    46  45  93 NE5       30.00F
ROCKWALL       CLOUDY    47  47 100 E8        29.98F FOG
TERRELL        LGT RAIN  48  46  93 NE9       29.98F
WAXAHACHIE     CLOUDY    47  47 100 NE6       29.98F FOG
CLEBURNE       CLOUDY    48  48 100 NE9       29.97S FOG
GRANBURY       CLOUDY    50  48  93 CALM      29.99R
$$

TXZ083>090-098>101-113>116-127>130-139>142-154-155-040200-
WESTERN NORTH TEXAS

CITY           SKY/WX    TMP DP  RH WIND       PRES   REMARKS
WICHITA FALLS  CLOUDY    45  44  97 E8        30.03R FOG
WF-KICKAPOO    CLOUDY    45  45  99 E5        30.04S
VERNON         CLOUDY    46  42  87 E6        30.03F
ABILENE        CLOUDY    45  45 100 N10       29.98R FOG     WCI  40
ABILENE-DYESS  LGT RAIN  45  45 100 N8        29.97R
CISCO          CLOUDY    46  46 100 N8        29.96R FOG
BRECKENRIDGE   CLOUDY    48  48  98 NE5       29.98S
GRAHAM         CLOUDY    46  46 100 CALM      29.98R FOG
MINERAL WELLS  CLOUDY    47  46  97 NE7       29.97F FOG
STEPHENVILLE   CLOUDY    48  46  93 CALM      29.99R
COMANCHE       CLOUDY    47  47 100 NE7       29.97R
BROWNWOOD      CLOUDY    48  46  93 N6        29.96R
COLEMAN        CLOUDY    47  46  95 N8        29.97R
$$

TXZ143>147-156>162-174-175-040200-
CENTRAL TEXAS

CITY           SKY/WX    TMP DP  RH WIND       PRES   REMARKS
WACO           CLOUDY    50  49  96 E13       29.92F FOG
WACO-TSTC      CLOUDY    50  48  93 E8        29.94F
WACO-MCGREGOR  CLOUDY    50  48  93 E12       29.90F
HILLSBORO      CLOUDY    49  48  97 NE13      29.93F FOG
CORSICANA      CLOUDY    51  49  92 NE8       29.96F
MEXIA          DRIZZLE   49  48  96 NE6       29.94F
HEARNE         CLOUDY    49  49  97 CALM      29.95R
CAMERON        RAIN      50  49  97 NE5       29.95R
TEMPLE         LGT RAIN  49  48  97 E16G25    29.87F
KILLEEN        CLOUDY    48  48 100 NE13      29.90S
KILLEEN-SKYLRK CLOUDY    49  48  97 N7        29.94F
FORT HOOD      CLOUDY    48  48 100 N13       29.92R
GATESVILLE     CLOUDY    48  48 100 N6        30.00R
HAMILTON       CLOUDY    49  49 100 NE6       29.98R FOG
LAMPASAS       CLOUDY    50  50  97 N5        29.93F FOG
$$

TXZ095>097-106>112-122>126-135>138-148>153-164>167-040200-
EAST TEXAS

CITY           SKY/WX    TMP DP  RH WIND       PRES   REMARKS
PARIS          CLOUDY    46  43  87 E9        30.02F
SULPHUR SPRNGS CLOUDY    47  47  97 NE6       30.03F
MOUNT PLEASANT CLOUDY    47  47 100 N6        30.04R
GILMER         RAIN      47  46  97 E14       29.94F
MINEOLA        CLOUDY    48  46  93 NE3       30.01R
TYLER          LGT RAIN  49  47  93 E9        29.96S
LONGVIEW       CLOUDY    49  48  97 E8        29.98S
MARSHALL       CLOUDY    45  43  93 E7        30.00F
ATHENS         LGT RAIN  46  46 100 N7        29.97R
PALESTINE      LGT RAIN  49  48  97 E8        29.93F
JACKSONVILLE   CLOUDY    47  47 100 NE6       29.96F
HENDERSON      CLOUDY    47  47 100 E7        29.97S
CENTER         CLOUDY    49  48  95 NE6       29.98F
NACOGDOCHES    CLOUDY    48  45  87 NE5       29.93S
LUFKIN         LGT RAIN  48  47  96 NE6       29.93F
$$

SUPPLEMENTAL OBSERVATIONS (CENTRAL)

CITY           SKY/WX    TMP DP  RH WIND       PRES   REMARKS
DENISON DAM      N/A     45  41  87 E5          N/A
CADDO GRASSLND   N/A     46  41  81 E5          N/A
PAT MAYSE LAKE   N/A     45  43  93 NE5         N/A
GREENVILLE       N/A     46  43  87 E9          N/A
CEDAR HILL       N/A     48  46  93 E5G14       N/A
ATHENS           N/A     48  45  87 N2G22       N/A
LAKE LIMESTONE   N/A     48  45  87 NE7G15      N/A
MCGREGOR         N/A     48  46  93 NE9G20      N/A
TEMPLE           N/A     48  46  93 NE13G26     N/A
$$

SUPPLEMENTAL OBSERVATIONS (WEST)

CITY           SKY/WX    TMP DP  RH WIND       PRES   REMARKS
MILLERS CREEK    N/A     45  43  93 NE6         N/A
POSSUM KINGDOM   N/A     46  45  93 N6          N/A
LBJ GRASSLAND    N/A     46  45  93 CALM        N/A
GRANBURY         N/A     48  45  87 NE5         N/A
COMANCHE         N/A     46  45  93 NE9         N/A
HAMBY            N/A     45  41  87 N6          N/A
IVIE RESERVOIR   N/A     48  43  81 NE7         N/A
COLORADO BEND    N/A     48  45  87 E6          N/A
$$

SUPPLEMENTAL OBSERVATIONS (EAST)

CITY           SKY/WX    TMP DP  RH WIND       PRES   REMARKS
CLARKSVILLE      N/A     46  41  81 E14         N/A
TEXARKANA        N/A     46  45  93 E6          N/A
LINDEN           N/A     46  43  87 E8          N/A
CADDO LAKE       N/A     46  45  93 E6          N/A
GILMER           N/A     48  45  87 E5G17       N/A
HENDERSON        N/A     48  45  87 E8          N/A
LUFKIN           N/A     48  45  87 MISG        N/A
N SABINE NF      N/A     48  46  93 MISG        N/A
S SABINE NF      N/A     48  46  93 N3          N/A
$$

SUPPLEMENTAL OBSERVATIONS ARE A COLLECTION OF AUTOMATED INSTRUMENTS
THAT ARE MAINTAINED BY A VARIETY OF FEDERAL AND STATE AGENCIES.
CERTAIN ELEMENTS...SUCH AS HUMIDITY VALUES AND SUSTAINED WIND
SPEEDS...MAY BE APPROXIMATED.





USA.gov is the U.S. government's official web portal to all federal, state and local government web resources and services.